EDT,Max TemperatureF,Mean TemperatureF,Min TemperatureF,Max Dew PointF,MeanDew PointF,Min DewpointF,Max Humidity, Mean Humidity, Min Humidity, Max Sea Level PressureIn, Mean Sea Level PressureIn, Min Sea Level PressureIn, Max VisibilityMiles, Mean VisibilityMiles, Min VisibilityMiles, Max Wind SpeedMPH, Mean Wind SpeedMPH, Max Gust SpeedMPH,PrecipitationIn, CloudCover, Events, WindDirDegrees
2013-9-1,91,79,67,72,70,66,97,79,48,29.92,29.87,29.78,10,8,1,10,3,16,0.89,2,Rain,227
2013-9-2,85,76,67,74,70,67,99,85,59,29.91,29.86,29.81,10,7,1,7,2,,0.72,2,Rain,236
2013-9-3,83,76,68,74,70,66,96,87,66,29.96,29.86,29.81,10,7,1,8,1,,0.47,2,Rain,196
2013-9-4,83,72,62,72,66,59,97,84,56,30.09,30.04,29.95,10,7,1,8,1,,0.00,3,,33
2013-9-5,85,71,57,66,61,53,99,77,33,30.11,30.07,30.04,10,7,0,7,1,,0.00,1,Fog,311
2013-9-6,81,68,56,62,58,54,98,71,40,30.18,30.12,30.09,10,10,7,10,3,,0.00,0,,20
2013-9-7,82,66,50,67,57,50,99,76,44,30.14,30.07,29.99,10,8,1,6,0,,0.00,0,,0
2013-9-8,85,69,53,66,57,51,98,73,32,30.00,29.96,29.92,10,8,1,7,1,,0.00,1,,334
2013-9-9,86,70,54,71,61,54,98,78,45,30.16,30.09,30.00,10,8,2,7,1,,0.00,1,,107
2013-9-10,87,66,46,68,59,46,99,78,37,30.24,30.20,30.15,10,6,0,6,1,,0.00,2,Fog,186
2013-9-11,86,70,53,70,61,53,98,79,49,30.22,30.16,30.09,10,7,1,7,1,,0.00,1,,202
2013-9-12,91,76,61,74,66,60,98,79,46,30.09,29.95,29.83,10,8,2,9,2,,0.00,3,Rain,227
2013-9-13,83,63,43,68,54,39,100,70,37,29.90,29.81,29.77,10,8,1,12,3,17,0.00,2,,333
2013-9-14,77,65,52,58,51,47,98,62,38,30.14,30.03,29.90,10,10,7,14,6,20,0.00,3,,11
2013-9-15,80,58,35,68,52,36,100,79,48,30.24,30.18,30.12,10,10,3,6,1,,0.00,1,,91
2013-9-16,85,78,70,70,61,54,100,59,35,30.19,30.12,30.05,10,9,1,10,2,16,0.61,5,Rain,322
2013-9-17,77,66,55,59,52,46,90,62,34,30.32,30.26,30.19,10,10,7,14,6,21,0.00,3,,39
2013-9-18,74,60,45,55,48,40,97,72,30,30.31,30.25,30.18,10,10,1,9,2,16,0.00,0,,38
2013-9-19,77,62,46,63,54,46,98,78,46,30.20,30.15,30.09,10,10,7,5,0,,0.00,5,,235
2013-9-20,70,65,60,64,60,58,94,89,77,30.10,30.05,29.98,10,10,7,7,1,,0.00,8,Rain,100
2013-9-21,79,70,60,68,63,58,96,86,62,29.98,29.85,29.74,10,8,2,8,2,,0.55,7,Rain,168
2013-9-22,76,64,52,60,57,52,97,80,50,29.91,29.79,29.70,10,9,3,17,7,23,1.49,6,Rain,5
2013-9-23,71,60,48,57,50,48,98,77,45,30.08,30.02,29.91,10,8,1,8,1,,0.00,5,,24
2013-9-24,73,59,45,60,51,45,99,83,49,30.11,30.04,29.96,10,6,0,5,0,,0.00,5,Fog,233
2013-9-25,70,57,44,61,53,44,99,85,57,29.97,29.92,29.88,10,6,0,6,0,,0.00,7,Fog-Rain,109
2013-9-26,58,54,50,57,54,49,97,96,94,29.93,29.90,29.88,10,5,0,0,0,,0.00,8,Fog,-1
2013-9-27,,,,,,,,,,,,,,,,,,,,,,
2013-9-28,,,,,,,,,,,,,,,,,,,,,,
2013-9-29,,,,,,,,,,,,,,,,,,,,,,
2013-9-30,,,,,,,,,,,,,,,,,,,,,,